AirNav   Pilot Hours Calculator
 
 943 users online  

KNFE Fentress Naval Auxiliary Field
Fentress, Virginia, USA

GOING TO FENTRESS?


FAA INFORMATION EFFECTIVE 31 DECEMBER 2020

Location

FAA Identifier: NFE
Lat/Long: 36-41-31.3310N 076-08-04.4305W
36-41.522183N 076-08.073842W
36.6920364,-76.1345640
(estimated)
Elevation: 16 ft. / 5 m (estimated)
Variation: 09W (1985)
Time zone: UTC -5 (UTC -4 during Daylight Saving Time)
Zip code: 23322

Airport Operations

Airport use: Private use. Permission required prior to landing
Activation date: 08/1943
Control tower: no
ARTCC: WASHINGTON CENTER
FSS: LEESBURG FLIGHT SERVICE STATION
Attendance: UNATNDD
Segmented circle: no
Lights: RY LGTS OPERATED BY CRASH CREW DURING SCHEDULED OPNS.

Airport Communications

OCEANA APPROACH: 123.9
OCEANA DEPARTURE: 123.9
WX AWOS-3 at CPK (9 nm W): 123.675 (757-204-4290)
WX ASOS at NTU (9 nm NE): PHONE DSN 433-3619 or 757-433-3619
WX ASOS at ORF (13 nm N): PHONE 757-460-9348
WX AWOS-3PT at PVG (16 nm W): 118.375 (757-465-2175)
WX AWOS-3 at ONX (18 nm S): 119.775 (252-453-8939)

Nearby radio navigation aids

VOR radial/distance  VOR name  Freq  Var
ORFr172/12.4NORFOLK VORTAC116.9007W
ECGr011/26.1ELIZABETH CITY VOR/DME112.5007W
CCVr199/39.9CAPE CHARLES VORTAC112.2010W

 
NDB name  Hdg/Dist  Freq  Var  ID
INGLE157/10.532909WOR --- .-.
WOODVILLE027/26.925410WLLW .-.. .-.. .--

Airport Services

Runway Information

Runway 5/23

Dimensions: 8004 x 175 ft. / 2440 x 53 m
Surface: asphalt
Weight bearing capacity: 
PCN 40 /R/C/W/T
Runway edge lights: low intensity
RUNWAY 5  RUNWAY 23
Latitude: 36-41.014033N36-42.030333N
Longitude: 076-08.595917W076-07.551767W
Elevation: 14.5 ft.14.2 ft.
Traffic pattern: leftleft
Runway heading: 049 magnetic, 040 true228 magnetic, 219 true
Touchdown point: yes, no lightsyes, no lights

Airport Ownership and Management from official FAA records

Ownership: U.S. Navy
Owner: US NAVY
OCEANOGRAPHIC OFC - CODE 3142
WASHINGTON, DC 20373

Additional Remarks

FOR CD CTC WASHINGTON ARTCC AT 703-771-3587.

Instrument Procedures

There are no published instrument procedures at KNFE.

Some nearby airports with instrument procedures:

KCPK - Chesapeake Regional Airport (9 nm W)
KNTU - Oceana Naval Air Station (Apollo Soucek Field) (9 nm NE)
KORF - Norfolk International Airport (13 nm N)
KPVG - Hampton Roads Exec Airport (16 nm W)
KNGU - Norfolk Naval Station (Chambers Field) (16 nm NW)
KONX - Currituck County Regional Airport (18 nm S)
 
Loc | Ops | Rwys | IFR | FBO | Links
Com | Nav | Svcs | Stats | Notes
Area around KNFE (Fentress Naval Auxiliary Field)
 
Road maps at: MapQuest Bing Google
 
Aerial photo
WARNING: Photo may not be current or correct
Aerial photo of KNFE (Fentress Naval Auxiliary Field)
Do you have a better or more recent aerial photo of Fentress Naval Auxiliary Field that you would like to share? If so, please send us your photo.

 
Sectional chart

 
Airport distance calculator
Flying to Fentress Naval Auxiliary Field? Find the distance to fly.

From to KNFE

Sunrise and sunset
Times for 22-Jan-2021
 Local
(UTC-5)
 Zulu
(UTC)
Morning civil twilight06:4611:46
Sunrise07:1412:14
Sunset17:1822:18
Evening civil twilight17:4622:46

Current date and time
Zulu (UTC)  23-Jan-2021 02:14:21
Local (UTC-5)  22-Jan-2021 21:14:21
 
METAR
KNFE 230156Z AUTO 10SM CLR 03/M02 A2994 RMK AO2 PRESRR SLP140 T00281022
KCPK 
9nm W 
230155Z AUTO 00000KT 10SM CLR 01/M02 A2993 RMK AO2 T00141024
KNTU 
9nm NE 
230156Z 02006KT 10SM CLR 07/M02 A2994 RMK AO2 SLP140 T00721022
KORF 
13nm N 
230151Z 03007KT 10SM CLR 07/01 A2994 RMK AO2 SLP137 T00720006
KNGU 
15nm NW 
230159Z 03007KT 10SM CLR 07/00 A2996 RMK AO2 SLP145 T00670000 $
KPVG 
16nm W 
230156Z AUTO 03005KT 10SM CLR M02/M03 A2996 RMK AO2 PRESRR SLP145 T10221033 FZRANO PNO $
KONX 
18nm S 
230155Z AUTO 00000KT 10SM CLR 03/01 A2993 RMK AO2 T00290008
TAF
KNTU 
9nm NE 
TAF 2223/2323 32008KT 9999 FEW250 QNH2984INS FM230700 34012G22KT 9999 SKC QNH2995INS FM231500 33015G24KT 9999 FEW040 QNH3015INS TEMPO 2315/2321 33018G25KT T10/2223Z T01/2322Z FN20051
KORF 
13nm N 
221930Z 2220/2318 29014G22KT P6SM SKC FM222200 29010KT P6SM SKC FM230000 33006KT P6SM SKC FM231500 33014G22KT P6SM SKC
KNGU 
15nm NW 
TAF 2223/2323 31009KT 9999 SKC QNH2986INS FM231200 34015G25KT 9999 FEW030 QNH3000INS T01/2311Z T07/2319Z FN20004
NOTAMs
Click for the latest NOTAMs
NOTAMs are issued by the DoD/FAA and will open in a separate window not controlled by AirNav.

 

 
 

Would you like to see your business listed on this page?

 If your business provides an interesting product or service to pilots, flight crews, aircraft, or users of the Fentress Naval Auxiliary Field, you should consider listing it here.  To start the listing process, click on the button below
 
Add a business
 

Other Pages about Fentress Naval Auxiliary Field

Update a link
 
Copyright © AirNav, LLC. All rights reserved. Privacy Policy  Contact